NP4KB Weather Reports


Display with metric or nautical units.
time (UTC)temp
F
wind
direction
speed
MPH
gust
MPH
rain 1hr
in
rain 24hr
in
rain mn
in
humidity
%
barometer
mb
20260507195517 0 111 10.0 10.0 0.00 0.00 0.00 1020.1
20260507195015 0 64 2.0 3.0 0.00 0.00 0.00 1019.8
20260507194511 0 126 6.0 7.0 0.00 0.00 0.00 1020.3
20260507194007 0 128 5.0 8.0 0.00 0.00 0.00 1020.3
20260507193504 0 114 7.0 7.0 0.00 0.00 0.00 1020.2
20260507193001 0 148 5.0 8.0 0.00 0.00 0.00 1020.4
20260507192456 0 123 3.0 5.0 0.00 0.00 0.00 1020.2
20260507191954 0 124 1.0 2.0 0.00 0.00 0.00 1020.3
20260507191449 0 117 6.0 8.0 0.00 0.00 0.00 1020.5
20260507190946 0 122 5.0 8.0 0.00 0.00 0.00 1020.5
20260507190444 0 146 7.0 8.0 0.00 0.00 0.00 1020.6
20260507185943 0 105 4.0 8.0 0.00 0.00 0.00 1020.4
20260507185439 0 258 1.0 3.0 0.00 0.00 0.00 1020.2
20260507184936 0 82 3.0 7.0 0.00 0.00 0.00 1020.4
20260507184434 0 57 4.0 8.0 0.00 0.00 0.00 1020.8
20260507183932 0 98 7.0 8.0 0.00 0.00 0.00 1020.4
20260507183428 0 80 7.0 8.0 0.00 0.00 0.00 1020.4
20260507182926 0 109 7.0 9.0 0.00 0.00 0.00 1020.3
20260507182421 0 87 7.0 9.0 0.00 0.00 0.00 1020.6
20260507181918 0 102 2.0 6.0 0.00 0.00 0.00 1020.6
20260507181414 0 151 4.0 6.0 0.00 0.00 0.00 1020.7
20260507180911 0 130 6.0 8.0 0.00 0.00 0.00 1021.0
20260507180408 0 123 3.0 5.0 0.00 0.00 0.00 1020.9
20260507175903 0 119 9.0 10.0 0.00 0.00 0.00 1021.0
20260507175400 0 111 3.0 6.0 0.00 0.00 0.00 1021.0
20260507174858 0 159 3.0 6.0 0.00 0.00 0.00 1021.2
20260507174355 0 119 5.0 7.0 0.00 0.00 0.00 1021.0
20260507173853 0 70 4.0 6.0 0.00 0.00 0.00 1021.4
20260507173349 0 108 6.0 9.0 0.00 0.00 0.00 1021.2
20260507172846 0 67 3.0 7.0 0.00 0.00 0.00 1021.3
20260507172343 0 106 8.0 10.0 0.00 0.00 0.00 1021.4
20260507171838 0 85 4.0 8.0 0.00 0.00 0.00 1021.5
20260507171335 0 165 3.0 7.0 0.00 0.00 0.00 1021.4
20260507170833 0 117 9.0 11.0 0.00 0.00 0.00 1021.5
20260507170329 0 132 3.0 5.0 0.00 0.00 0.00 1021.6
20260507165825 0 140 5.0 7.0 0.00 0.00 0.00 1021.6
20260507165321 0 174 3.0 5.0 0.00 0.00 0.00 1021.9
20260507164817 0 156 4.0 7.0 0.00 0.00 0.00 1022.0
20260507164314 0 38 8.0 10.0 0.00 0.00 0.00 1022.1
20260507163812 0 94 6.0 8.0 0.00 0.00 0.00 1022.1
20260507163309 0 126 2.0 5.0 0.00 0.00 0.00 1022.1
20260507162805 0 116 7.0 9.0 0.00 0.00 0.00 1022.3
20260507162301 0 90 7.0 8.0 0.00 0.00 0.00 1022.3
20260507161758 0 113 7.0 10.0 0.00 0.00 0.00 1022.2
20260507161255 0 134 9.0 9.0 0.00 0.00 0.00 1022.5
20260507160750 0 99 1.0 2.0 0.00 0.00 0.00 1022.4
20260507160247 0 116 6.0 7.0 0.00 0.00 0.00 1022.4
20260507155743 0 148 9.0 13.0 0.00 0.00 0.00 1022.6
20260507155239 0 140 11.0 13.0 0.00 0.00 0.00 1022.3
20260507154736 0 134 10.0 13.0 0.00 0.00 0.00 1022.5
20260507154234 0 94 3.0 6.0 0.00 0.00 0.00 1022.4
20260507153730 0 139 9.0 10.0 0.00 0.00 0.00 1022.6
20260507153226 0 77 6.0 10.0 0.00 0.00 0.00 1022.6
20260507152723 0 135 6.0 7.0 0.00 0.00 0.00 1022.4
20260507152220 0 128 7.0 9.0 0.00 0.00 0.00 1022.6
20260507151715 0 79 1.0 5.0 0.00 0.00 0.00 1022.6
20260507151212 0 95 2.0 3.0 0.00 0.00 0.00 1022.5
20260507150709 0 114 5.0 7.0 0.00 0.00 0.00 1022.6
20260507150206 0 142 7.0 10.0 0.00 0.00 0.00 1022.5
20260507145701 0 141 11.0 15.0 0.00 0.00 0.00 1022.4
20260507145158 0 151 5.0 7.0 0.00 0.00 0.00 1022.7
20260507144655 0 113 5.0 7.0 0.00 0.00 0.00 1022.5
20260507144153 0 113 6.0 8.0 0.00 0.00 0.00 1022.6
20260507143650 0 156 3.0 3.0 0.00 0.00 0.00 1022.4
20260507143146 0 55 5.0 7.0 0.00 0.00 0.00 1022.6
20260507142642 0 124 5.0 7.0 0.00 0.00 0.00 1022.7
20260507142133 0 97 4.0 6.0 0.00 0.00 0.00 1022.7
20260507141629 0 134 3.0 3.0 0.00 0.00 0.00 1022.7
20260507141126 0 86 5.0 6.0 0.00 0.00 0.00 1022.7
20260507140623 0 95 4.0 6.0 0.00 0.00 0.00 1022.8
20260507140120 0 126 10.0 11.0 0.00 0.00 0.00 1023.0
20260507135617 0 122 5.0 8.0 0.00 0.00 0.00 1022.7
20260507135115 0 88 5.0 7.0 0.00 0.00 0.00 1022.8
20260507134611 0 141 3.0 3.0 0.00 0.00 0.00 1022.7
20260507134107 0 102 4.0 7.0 0.00 0.00 0.00 1022.8
20260507133603 0 108 7.0 9.0 0.00 0.00 0.00 1022.9
20260507133101 0 130 6.0 8.0 0.00 0.00 0.00 1022.9
20260507132557 0 104 6.0 8.0 0.00 0.00 0.00 1022.7
20260507132054 0 144 6.0 9.0 0.00 0.00 0.00 1022.8
20260507131551 0 132 10.0 13.0 0.00 0.00 0.00 1022.5
20260507131048 0 102 9.0 10.0 0.00 0.00 0.00 1022.6
20260507130545 0 153 3.0 5.0 0.00 0.00 0.00 1022.4
20260507130043 0 130 10.0 11.0 0.00 0.00 0.00 1022.2
20260507125542 0 163 5.0 8.0 0.00 0.00 0.00 1022.5
20260507125038 0 139 6.0 8.0 0.00 0.00 0.00 1022.6
20260507124534 0 118 5.0 7.0 0.00 0.00 0.00 1022.3
20260507124033 0 117 5.0 8.0 0.00 0.00 0.00 1022.5
20260507123530 0 157 0.0 2.0 0.00 0.00 0.00 1022.2
20260507123027 0 178 7.0 9.0 0.00 0.00 0.00 1022.2
20260507122522 0 123 10.0 11.0 0.00 0.00 0.00 1022.4
20260507122018 0 132 6.0 7.0 0.00 0.00 0.00 1022.2
20260507121514 0 141 7.0 8.0 0.00 0.00 0.00 1022.4
20260507121010 0 125 6.0 8.0 0.00 0.00 0.00 1022.3
20260507120506 0 178 4.0 5.0 0.00 0.00 0.00 1022.3
20260507120004 0 104 7.0 10.0 0.00 0.00 0.00 1022.4
20260507115500 0 105 6.0 8.0 0.00 0.00 0.00 1022.2
20260507114955 0 123 6.0 7.0 0.00 0.00 0.00 1022.3
20260507114451 0 58 6.0 8.0 0.00 0.00 0.00 1022.2
20260507113944 0 141 5.0 7.0 0.00 0.00 0.00 1022.0
20260507113441 0 90 5.0 8.0 0.00 0.00 0.00 1022.2
20260507112938 0 111 6.0 8.0 0.00 0.00 0.00 1022.1
20260507112435 0 98 5.0 8.0 0.00 0.00 0.00 1021.7
20260507111932 0 100 4.0 6.0 0.00 0.00 0.00 1021.8
20260507111430 0 150 4.0 6.0 0.00 0.00 0.00 1021.7
20260507110926 0 141 3.0 3.0 0.00 0.00 0.00 1021.8
20260507110422 0 91 3.0 5.0 0.00 0.00 0.00 1022.0
20260507105919 0 52 1.0 2.0 0.00 0.00 0.00 1021.7
20260507105416 0 103 6.0 8.0 0.00 0.00 0.00 1021.6
20260507104912 0 84 0.0 0.0 0.00 0.00 0.00 1021.6
20260507104409 0 92 1.0 2.0 0.00 0.00 0.00 1021.8
20260507103905 0 113 6.0 8.0 0.00 0.00 0.00 1021.8
20260507103402 0 133 1.0 2.0 0.00 0.00 0.00 1021.6
20260507102858 0 124 3.0 5.0 0.00 0.00 0.00 1021.8
20260507102354 0 39 0.0 0.0 0.00 0.00 0.00 1021.6
20260507101851 0 118 5.0 6.0 0.00 0.00 0.00 1021.6
20260507101350 0 98 0.0 1.0 0.00 0.00 0.00 1021.8
20260507100848 0 161 0.0 0.0 0.00 0.00 0.00 1021.4
20260507100346 0 143 0.0 0.0 0.00 0.00 0.00 1021.5
20260507095844 0 144 3.0 5.0 0.00 0.00 0.00 1021.4
20260507095340 0 127 1.0 2.0 0.00 0.00 0.00 1021.1
20260507094837 0 125 4.0 5.0 0.00 0.00 0.00 1021.7
20260507094334 0 106 1.0 1.0 0.00 0.00 0.00 1021.7
20260507093831 0 119 4.0 5.0 0.00 0.00 0.00 1021.5
20260507093329 0 124 0.0 0.0 0.00 0.00 0.00 1021.5
20260507092827 0 111 5.0 6.0 0.00 0.00 0.00 1021.4
20260507092324 0 146 0.0 0.0 0.00 0.00 0.00 1021.4
20260507091820 0 151 0.0 0.0 0.00 0.00 0.00 1021.6
20260507091316 0 70 0.0 0.0 0.00 0.00 0.00 1021.4
20260507090812 0 109 1.0 2.0 0.00 0.00 0.00 1021.7
20260507090308 0 89 0.0 0.0 0.00 0.00 0.00 1021.5
20260507085805 0 81 0.0 0.0 0.00 0.00 0.00 1021.4
20260507085306 0 123 0.0 2.0 0.00 0.00 0.00 1021.7
20260507084800 0 140 0.0 0.0 0.00 0.00 0.00 1021.4
20260507084256 0 124 1.0 2.0 0.00 0.00 0.00 1021.5
20260507083754 0 143 0.0 1.0 0.00 0.00 0.00 1021.6
20260507083250 0 44 0.0 0.0 0.00 0.00 0.00 1021.3
20260507082746 0 146 0.0 0.0 0.00 0.00 0.00 1021.5
20260507082242 0 95 0.0 1.0 0.00 0.00 0.00 1021.0
20260507081739 0 95 1.0 2.0 0.00 0.00 0.00 1021.2
20260507081235 0 80 5.0 7.0 0.00 0.00 0.00 1021.2
20260507080732 0 102 0.0 0.0 0.00 0.00 0.00 1021.3
20260507080228 0 88 1.0 2.0 0.00 0.00 0.00 1021.3
20260507075723 0 127 0.0 0.0 0.00 0.00 0.00 1021.3
20260507075220 0 171 0.0 0.0 0.00 0.00 0.00 1021.3
20260507074716 0 62 0.0 0.0 0.00 0.00 0.00 1021.3
20260507074215 0 62 0.0 0.0 0.00 0.00 0.00 1021.3
20260507073711 0 93 0.0 0.0 0.00 0.00 0.00 1021.3
20260507073207 0 284 0.0 0.0 0.00 0.00 0.00 1021.4
20260507072705 0 142 0.0 0.0 0.00 0.00 0.00 1021.5
20260507072202 0 108 3.0 3.0 0.00 0.00 0.00 1021.5
20260507071700 0 144 0.0 0.0 0.00 0.00 0.00 1021.2
20260507071155 0 126 0.0 0.0 0.00 0.00 0.00 1021.4
20260507070653 0 67 0.0 0.0 0.00 0.00 0.00 1021.5
20260507070149 0 129 0.0 0.0 0.00 0.00 0.00 1021.6
20260507065645 0 124 3.0 5.0 0.00 0.00 0.00 1021.5
20260507065137 0 26 0.0 1.0 0.00 0.00 0.00 1021.6
20260507064635 0 86 0.0 0.0 0.00 0.00 0.00 1021.7
20260507064133 0 146 0.0 0.0 0.00 0.00 0.00 1021.7
20260507063630 0 152 0.0 0.0 0.00 0.00 0.00 1021.7
20260507063127 0 35 4.0 6.0 0.00 0.00 0.00 1021.8
20260507062624 0 144 0.0 0.0 0.00 0.00 0.00 1021.8
20260507062122 0 163 0.0 1.0 0.00 0.00 0.00 1022.0
20260507061619 0 117 0.0 0.0 0.00 0.00 0.00 1022.0
20260507061117 0 150 0.0 0.0 0.00 0.00 0.00 1022.1
20260507060615 0 88 0.0 0.0 0.00 0.00 0.00 1022.3
20260507060111 0 118 0.0 0.0 0.00 0.00 0.00 1022.1
20260507055607 0 155 0.0 0.0 0.00 0.00 0.00 1022.1
20260507055103 0 94 0.0 0.0 0.00 0.00 0.00 1022.2
20260507054559 0 99 0.0 0.0 0.00 0.00 0.00 1022.3
20260507054056 0 129 2.0 5.0 0.00 0.00 0.00 1022.1
20260507053554 0 101 0.0 0.0 0.00 0.00 0.00 1022.3
20260507053052 0 90 0.0 0.0 0.00 0.00 0.00 1022.6
20260507052550 0 125 0.0 0.0 0.00 0.00 0.00 1022.3
20260507052046 0 196 0.0 0.0 0.00 0.00 0.00 1022.7
20260507051544 0 99 0.0 0.0 0.00 0.00 0.00 1022.7
20260507051041 0 134 0.0 0.0 0.00 0.00 0.00 1022.8
20260507050537 0 161 1.0 2.0 0.00 0.00 0.00 1023.1
20260507050034 0 299 0.0 0.0 0.00 0.00 0.00 1022.8
20260507045530 0 177 0.0 0.0 0.00 0.00 0.00 1023.1
20260507045028 0 188 0.0 0.0 0.00 0.00 0.00 1023.1
20260507044524 0 59 2.0 5.0 0.00 0.00 0.00 1023.0
20260507044021 0 116 2.0 3.0 0.00 0.00 0.00 1023.2
20260507043517 0 184 0.0 1.0 0.00 0.00 0.00 1023.3
20260507043015 0 139 5.0 6.0 0.00 0.00 0.00 1023.3
20260507042510 0 196 0.0 0.0 0.00 0.00 0.00 1023.4
20260507042006 0 82 0.0 0.0 0.00 0.00 0.00 1023.4
20260507041503 0 223 0.0 0.0 0.00 0.00 0.00 1023.5
20260507041000 0 127 0.0 0.0 0.00 0.00 0.00 1023.6
20260507040456 0 77 2.0 3.0 0.00 0.00 0.00 1023.6
20260507035951 0 81 0.0 1.0 0.00 0.00 0.00 1023.6
20260507035448 0 137 1.0 2.0 0.00 0.00 0.00 1023.7
20260507034945 0 41 0.0 0.0 0.00 0.00 0.00 1023.5
20260507034442 0 63 1.0 2.0 0.00 0.00 0.00 1023.8
20260507033940 0 82 3.0 5.0 0.00 0.00 0.00 1023.8
20260507033438 0 80 0.0 1.0 0.00 0.00 0.00 1023.7
20260507032934 0 114 0.0 0.0 0.00 0.00 0.00 1023.7
20260507032432 0 178 2.0 3.0 0.00 0.00 0.00 1023.7
20260507031927 0 175 0.0 0.0 0.00 0.00 0.00 1023.7
20260507031426 0 49 1.0 2.0 0.00 0.00 0.00 1023.5
20260507030921 0 118 1.0 6.0 0.00 0.00 0.00 1023.6
20260507030418 0 121 0.0 0.0 0.00 0.00 0.00 1023.6
20260507025915 0 61 8.0 11.0 0.00 0.00 0.00 1023.8
20260507025413 0 55 2.0 6.0 0.00 0.00 0.00 1023.7
20260507024910 0 93 3.0 9.0 0.00 0.00 0.00 1023.7
20260507024407 0 95 3.0 6.0 0.00 0.00 0.00 1023.8
20260507023903 0 67 7.0 9.0 0.00 0.00 0.00 1023.8
20260507023400 0 122 8.0 11.0 0.00 0.00 0.00 1023.6
20260507022857 0 86 6.0 9.0 0.00 0.00 0.00 1023.6
20260507022354 0 92 5.0 8.0 0.00 0.00 0.00 1023.4
20260507021850 0 121 4.0 9.0 0.00 0.00 0.00 1023.7
20260507021345 0 101 2.0 2.0 0.00 0.00 0.00 1023.7
20260507020843 0 133 2.0 3.0 0.00 0.00 0.00 1023.5
20260507020339 0 68 2.0 5.0 0.00 0.00 0.00 1023.7
20260507015837 0 59 4.0 5.0 0.00 0.00 0.00 1023.6
20260507015335 0 60 2.0 3.0 0.00 0.00 0.00 1023.8
20260507014831 0 91 2.0 7.0 0.00 0.00 0.00 1023.6
20260507014328 0 120 3.0 5.0 0.00 0.00 0.00 1023.4
20260507013824 0 44 1.0 1.0 0.00 0.00 0.00 1023.5
20260507013321 0 76 3.0 6.0 0.00 0.00 0.00 1023.4
20260507012819 0 130 3.0 6.0 0.00 0.00 0.00 1023.3
20260507012314 0 52 0.0 1.0 0.00 0.00 0.00 1023.1
20260507011806 0 92 0.0 0.0 0.00 0.00 0.00 1023.2
20260507011303 0 74 0.0 0.0 0.00 0.00 0.00 1023.1
20260507010802 0 108 3.0 6.0 0.00 0.00 0.00 1023.1
20260507010259 0 70 3.0 5.0 0.00 0.00 0.00 1023.1
20260507005756 0 76 3.0 6.0 0.00 0.00 0.00 1023.0
20260507005252 0 144 5.0 7.0 0.00 0.00 0.00 1022.9
20260507004749 0 129 7.0 8.0 0.00 0.00 0.00 1023.0
20260507004247 0 138 0.0 0.0 0.00 0.00 0.00 1022.9
20260507003743 0 107 3.0 5.0 0.00 0.00 0.00 1022.8
20260507003238 0 87 3.0 6.0 0.00 0.00 0.00 1022.7
20260507002734 0 235 0.0 0.0 0.00 0.00 0.00 1022.5
20260507002231 0 108 3.0 8.0 0.00 0.00 0.00 1022.6
20260507001727 0 151 4.0 5.0 0.00 0.00 0.00 1022.7
20260507001225 0 112 4.0 7.0 0.00 0.00 0.00 1022.5
20260507000721 0 142 0.0 0.0 0.00 0.00 0.00 1022.6
20260507000217 0 94 0.0 1.0 0.00 0.00 0.00 1022.2
20260506235714 0 114 5.0 6.0 0.00 0.00 0.00 1022.5
20260506235209 0 119 1.0 2.0 0.00 0.00 0.00 1022.0
20260506234706 0 126 1.0 2.0 0.00 0.00 0.00 1022.2
20260506234204 0 128 0.0 1.0 0.00 0.00 0.00 1022.0
20260506233701 0 133 0.0 0.0 0.00 0.00 0.00 1021.9
20260506233157 0 127 3.0 5.0 0.00 0.00 0.00 1022.0
20260506232654 0 99 3.0 5.0 0.00 0.00 0.00 1022.0
20260506232149 0 127 2.0 3.0 0.00 0.00 0.00 1021.7
20260506231646 0 92 0.0 1.0 0.00 0.00 0.00 1021.8
20260506231145 0 60 1.0 2.0 0.00 0.00 0.00 1021.9
20260506230641 0 75 3.0 5.0 0.00 0.00 0.00 1021.7
20260506230138 0 111 6.0 7.0 0.00 0.00 0.00 1022.0
20260506225635 0 100 4.0 6.0 0.00 0.00 0.00 1021.4
20260506225132 0 96 4.0 6.0 0.00 0.00 0.00 1021.5
20260506224628 0 102 3.0 6.0 0.00 0.00 0.00 1021.4
20260506224125 0 125 5.0 7.0 0.00 0.00 0.00 1021.6
20260506223621 0 105 1.0 3.0 0.00 0.00 0.00 1021.6
20260506223117 0 121 1.0 2.0 0.00 0.00 0.00 1021.4
20260506222614 0 100 6.0 8.0 0.00 0.00 0.00 1021.3
20260506222111 0 178 3.0 5.0 0.00 0.00 0.00 1021.3
20260506221608 0 100 9.0 10.0 0.00 0.00 0.00 1021.0
20260506221106 0 126 1.0 3.0 0.00 0.00 0.00 1021.2
20260506220602 0 144 7.0 8.0 0.00 0.00 0.00 1021.2
20260506220057 0 128 8.0 9.0 0.00 0.00 0.00 1021.2
20260506215554 0 137 5.0 7.0 0.00 0.00 0.00 1021.0
20260506215050 0 119 11.0 14.0 0.00 0.00 0.00 1021.1
20260506214547 0 144 11.0 13.0 0.00 0.00 0.00 1021.0
20260506214044 0 141 3.0 8.0 0.00 0.00 0.00 1021.0
20260506213543 0 141 4.0 5.0 0.00 0.00 0.00 1021.3
20260506213040 0 92 7.0 10.0 0.00 0.00 0.00 1021.0
20260506212536 0 98 5.0 7.0 0.00 0.00 0.00 1020.9
20260506212031 0 106 6.0 9.0 0.00 0.00 0.00 1021.0
20260506211527 0 103 10.0 11.0 0.00 0.00 0.00 1021.0
20260506211024 0 128 8.0 9.0 0.00 0.00 0.00 1020.9
20260506210521 0 113 7.0 9.0 0.00 0.00 0.00 1020.7
20260506210018 0 139 6.0 7.0 0.00 0.00 0.00 1020.8
20260506205515 0 103 5.0 8.0 0.00 0.00 0.00 1020.9
20260506205009 0 121 3.0 3.0 0.00 0.00 0.00 1020.7
20260506204508 0 106 7.0 8.0 0.00 0.00 0.00 1020.8
20260506204005 0 124 7.0 10.0 0.00 0.00 0.00 1020.8
20260506203503 0 157 4.0 8.0 0.00 0.00 0.00 1020.9
20260506202959 0 125 11.0 13.0 0.00 0.00 0.00 1021.0
20260506202456 0 96 5.0 10.0 0.00 0.00 0.00 1020.7
20260506201952 0 102 5.0 7.0 0.00 0.00 0.00 1020.8
20260506201450 0 105 11.0 11.0 0.00 0.00 0.00 1020.7
20260506200947 0 139 7.0 8.0 0.00 0.00 0.00 1020.8
20260506200443 0 101 7.0 9.0 0.00 0.00 0.00 1020.9
20260506195939 0 99 9.0 11.0 0.00 0.00 0.00 1020.7